Location: Newark
(40.9833°N, 0.0333°W)
Time: 02:08:06
(UTC+00:00)

Transit 2A Rocket - Pass Details

Date: 29 October 2020
Orbit: 588 x 914 km, 66.7° (Epoch: 26 November)

Event Time Altitude Azimuth Distance (km) Brightness Sun altitude
Rises 17:03:51 0° 338° (NNW) 3,304 8.4 -1.7°
Reaches altitude 10° 17:06:48 10° 351° (N) 2,309 7.4 -2.2°
Maximum altitude 17:11:05 25° 46° (NE) 1,446 6.0 -3.0°
Drops below altitude 10° 17:15:03 10° 102° (ESE) 2,123 6.8 -3.7°
Sets 17:17:38 0° 116° (ESE) 2,980 7.6 -4.2°
